Location: ??????
(42.0089°N, 44.3281°E)
Time: 16:42:48
(UTC+00:00)

NOSS 8 (H) - Pass Details

Date: 29 May 2022
Orbit: 366 x 1779 km, 63.3° (Epoch: 02 July)

Event Time Altitude Azimuth Distance (km) Brightness Sun altitude
Rises 20:13:47 0° 307° (NW) 2,684 9.1 -25.4°
Reaches altitude 10° 20:16:03 10° 292° (WNW) 1,954 8.0 -25.5°
Enters shadow 20:18:32 21° 258° (WSW) 1,523 7.0 -25.6°
